Location: Bradford+West+Gwillimbury,+ON,+Canadà
(44.1162°N, 79.5735°W)
Time: 16:25:18
(UTC-04:00)

STARLINK-2646 - Pass Details

Date: 22 June 2021
Orbit: 546 x 548 km, 53.1° (Epoch: 05 August)

Event Time Altitude Azimuth Distance (km) Brightness Sun altitude
Exits shadow 02:59:49 - 129° (SE) 2,430 6.8 -18.7°
Enters shadow 03:59:50 -70° 236° (WSW) 12,559 10.4 -13.2°
Maximum altitude 04:39:14 33° 135° (SE) 926 4.8 -8.6°
